• In Belgium
  • List of Countries
  • For 7 days
  • Water Temperature
  • Satellite Maps
  • Weather Map
  • Weather Widgets
  • user-avatar
    Login

    Hourly Weather Konstantyna

    Today, 17 July, Tuesday

    Time Temperature Precipitation Wind Pressure Humidity
    00:00 +25°C° 0 mm 1 mps 712 mmHg 48%
    01:00 +24°C° 0 mm 1 mps 712 mmHg 49%
    02:00 +24°C° 0 mm 1 mps 711 mmHg 49%
    03:00 +23°C° 0 mm 1 mps 711 mmHg 49%
    04:00 +24°C° 0 mm 1 mps 711 mmHg 47%
    05:00 +24°C° 0 mm 1 mps 711 mmHg 46%
    06:00 +24°C° 0 mm 1 mps 712 mmHg 44%
    07:00 +26°C° 0 mm 1 mps 712 mmHg 39%
    08:00 +28°C° 0 mm 1 mps 712 mmHg 33%
    09:00 +29°C° 0 mm 2 mps 713 mmHg 28%
    10:00 +31°C° 0 mm 2 mps 713 mmHg 26%
    11:00 +32°C° 0 mm 2 mps 713 mmHg 23%
    12:00 +35°C° 0 mm 2 mps 713 mmHg 21%
    13:00 +35°C° 0 mm 3 mps 713 mmHg 21%
    14:00 +36°C° 0 mm 3 mps 712 mmHg 22%
    15:00 +36°C° 0 mm 4 mps 712 mmHg 23%
    16:00 +35°C° 0 mm 4 mps 712 mmHg 28%
    17:00 +33°C° 0 mm 4 mps 712 mmHg 32%
    18:00 +32°C° 0 mm 4 mps 711 mmHg 37%
    19:00 +30°C° 0 mm 3 mps 711 mmHg 43%
    20:00 +28°C° 0 mm 2 mps 712 mmHg 48%
    21:00 +27°C° 0 mm 2 mps 712 mmHg 53%
    22:00 +26°C° 0 mm 2 mps 711 mmHg 54%
    23:00 +26°C° 0 mm 1 mps 711 mmHg 55%

    Tomorrow, 18 July, Wednesday

    Time Temperature Precipitation Wind Pressure Humidity
    00:00 +26°C° 0 mm 1 mps 711 mmHg 56%
    01:00 +26°C° 0 mm 1 mps 711 mmHg 56%
    02:00 +25°C° 0 mm 1 mps 711 mmHg 57%
    03:00 +25°C° 0 mm 1 mps 710 mmHg 57%
    04:00 +26°C° 0 mm 1 mps 710 mmHg 54%
    05:00 +27°C° 0 mm 1 mps 711 mmHg 51%
    06:00 +27°C° 0 mm 1 mps 711 mmHg 49%
    07:00 +30°C° 0 mm 1 mps 711 mmHg 42%
    08:00 +32°C° 0 mm 1 mps 711 mmHg 36%
    09:00 +35°C° 0 mm 2 mps 712 mmHg 29%
    10:00 +37°C° 0 mm 2 mps 712 mmHg 26%
    11:00 +39°C° 0 mm 2 mps 712 mmHg 22%
    12:00 +42°C° 0 mm 3 mps 711 mmHg 18%
    13:00 +42°C° 0 mm 4 mps 711 mmHg 17%
    14:00 +43°C° 0 mm 4 mps 711 mmHg 16%
    15:00 +43°C° 0 mm 5 mps 710 mmHg 16%
    16:00 +42°C° 0 mm 5 mps 710 mmHg 19%
    17:00 +40°C° 0 mm 4 mps 710 mmHg 22%
    18:00 +38°C° 0 mm 3 mps 710 mmHg 25%
    19:00 +36°C° 0 mm 3 mps 710 mmHg 29%
    20:00 +35°C° 0 mm 2 mps 710 mmHg 32%
    21:00 +32°C° 0 mm 1 mps 710 mmHg 36%
    22:00 +31°C° 0 mm 1 mps 710 mmHg 37%
    23:00 +31°C° 0 mm 1 mps 710 mmHg 39%

    Day after tomorrow, 19 July, Thursday

    Time Temperature Precipitation Wind Pressure Humidity
    00:00 +28°C° 0 mm 0 mps 710 mmHg 40%
    01:00 +28°C° 0 mm 0 mps 710 mmHg 40%
    02:00 +30°C° 0 mm 1 mps 709 mmHg 41%
    03:00 +29°C° 0 mm 1 mps 709 mmHg 42%
    04:00 +30°C° 0 mm 1 mps 710 mmHg 42%
    05:00 +30°C° 0 mm 1 mps 710 mmHg 41%
    06:00 +31°C° 0 mm 1 mps 710 mmHg 41%
    07:00 +32°C° 0 mm 1 mps 710 mmHg 37%
    08:00 +34°C° 0 mm 1 mps 711 mmHg 33%
    09:00 +37°C° 0 mm 2 mps 711 mmHg 29%
    10:00 +38°C° 0 mm 2 mps 711 mmHg 26%
    11:00 +39°C° 0 mm 2 mps 711 mmHg 23%
    12:00 +41°C° 0 mm 2 mps 711 mmHg 20%
    13:00 +40°C° 0 mm 3 mps 711 mmHg 22%
    14:00 +40°C° 0 mm 3 mps 711 mmHg 23%
    15:00 +41°C° 0 mm 4 mps 711 mmHg 25%
    16:00 +38°C° 0 mm 4 mps 711 mmHg 27%
    17:00 +37°C° 0 mm 4 mps 711 mmHg 29%
    18:00 +36°C° 0 mm 3 mps 711 mmHg 31%
    19:00 +35°C° 0 mm 3 mps 711 mmHg 33%
    20:00 +34°C° 0 mm 2 mps 711 mmHg 36%
    21:00 +31°C° 0 mm 1 mps 711 mmHg 38%
    22:00 +31°C° 0 mm 1 mps 711 mmHg 38%
    23:00 +31°C° 0 mm 1 mps 711 mmHg 39%

    20 July, Friday

    Time Temperature Precipitation Wind Pressure Humidity
    00:00 +30°C° 0 mm 1 mps 710 mmHg 39%
    01:00 +30°C° 0.1 mm 1 mps 710 mmHg 38%
    02:00 +30°C° 0.1 mm 1 mps 710 mmHg 37%
    03:00 +30°C° 0.1 mm 1 mps 709 mmHg 37%
    04:00 +30°C° 0 mm 1 mps 709 mmHg 34%
    05:00 +31°C° 0 mm 1 mps 710 mmHg 32%
    06:00 +32°C° 0 mm 1 mps 710 mmHg 30%
    07:00 +34°C° 0 mm 1 mps 710 mmHg 26%
    08:00 +37°C° 0 mm 1 mps 711 mmHg 22%
    09:00 +40°C° 0 mm 2 mps 711 mmHg 17%
    10:00 +41°C° 0 mm 2 mps 711 mmHg 16%
    11:00 +43°C° 0 mm 3 mps 711 mmHg 14%
    12:00 +44°C° 0 mm 4 mps 712 mmHg 13%
    13:00 +43°C° 0 mm 3 mps 711 mmHg 15%
    14:00 +42°C° 0 mm 3 mps 711 mmHg 18%
    15:00 +40°C° 0 mm 3 mps 711 mmHg 20%
    16:00 +39°C° 0 mm 3 mps 711 mmHg 22%
    17:00 +38°C° 0 mm 4 mps 711 mmHg 25%
    18:00 +37°C° 0 mm 4 mps 711 mmHg 27%
    19:00 +36°C° 0 mm 4 mps 711 mmHg 29%
    20:00 +35°C° 0 mm 3 mps 711 mmHg 31%
    21:00 +34°C° 0 mm 3 mps 711 mmHg 34%
    22:00 +32°C° 0.1 mm 2 mps 711 mmHg 34%
    23:00 +32°C° 0.1 mm 2 mps 711 mmHg 35%

    21 July, Saturday

    Time Temperature Precipitation Wind Pressure Humidity
    00:00 +31°C° 0.1 mm 2 mps 710 mmHg 35%
    01:00 +31°C° 0 mm 1 mps 710 mmHg 35%
    02:00 +30°C° 0 mm 1 mps 710 mmHg 34%
    03:00 +30°C° 0 mm 1 mps 710 mmHg 34%
    04:00 +30°C° 0 mm 1 mps 710 mmHg 34%
    05:00 +31°C° 0 mm 1 mps 710 mmHg 35%
    06:00 +31°C° 0 mm 1 mps 711 mmHg 35%
    07:00 +34°C° 0 mm 2 mps 711 mmHg 31%
    08:00 +36°C° 0 mm 3 mps 711 mmHg 28%
    09:00 +38°C° 0 mm 4 mps 711 mmHg 24%
    10:00 +40°C° 0 mm 4 mps 711 mmHg 23%
    11:00 +41°C° 0 mm 5 mps 711 mmHg 21%
    12:00 +43°C° 0 mm 5 mps 711 mmHg 20%
    13:00 +42°C° 0 mm 5 mps 711 mmHg 23%
    14:00 +41°C° 0 mm 5 mps 711 mmHg 26%
    15:00 +40°C° 0 mm 5 mps 711 mmHg 29%
    16:00 +37°C° 0 mm 4 mps 711 mmHg 34%
    17:00 +36°C° 0 mm 4 mps 711 mmHg 40%
    18:00 +34°C° 0 mm 3 mps 711 mmHg 46%
    19:00 +31°C° 0 mm 3 mps 711 mmHg 51%
    20:00 +30°C° 0 mm 2 mps 711 mmHg 56%
    21:00 +29°C° 0 mm 2 mps 711 mmHg 61%
    22:00 +28°C° 0 mm 2 mps 711 mmHg 63%
    23:00 +27°C° 0 mm 2 mps 711 mmHg 65%

    22 July, Sunday

    Time Temperature Precipitation Wind Pressure Humidity
    00:00 +27°C° 0 mm 1 mps 711 mmHg 67%
    01:00 +26°C° 0 mm 1 mps 710 mmHg 68%
    02:00 +26°C° 0 mm 1 mps 710 mmHg 69%
    03:00 +26°C° 0 mm 1 mps 710 mmHg 71%
    04:00 +26°C° 0 mm 1 mps 710 mmHg 70%
    05:00 +25°C° 0 mm 1 mps 710 mmHg 70%
    06:00 +25°C° 0 mm 1 mps 711 mmHg 69%
    07:00 +27°C° 0 mm 2 mps 711 mmHg 61%
    08:00 +28°C° 0 mm 2 mps 711 mmHg 52%
    09:00 +30°C° 0 mm 2 mps 711 mmHg 44%
    10:00 +31°C° 0 mm 2 mps 711 mmHg 40%
    11:00 +33°C° 0 mm 3 mps 711 mmHg 37%
    12:00 +34°C° 0 mm 3 mps 711 mmHg 34%
    13:00 +34°C° 0 mm 3 mps 711 mmHg 33%
    14:00 +35°C° 0 mm 4 mps 711 mmHg 32%
    15:00 +36°C° 0 mm 4 mps 711 mmHg 31%
    16:00 +34°C° 0 mm 4 mps 711 mmHg 35%
    17:00 +33°C° 0 mm 4 mps 711 mmHg 39%
    18:00 +32°C° 0 mm 4 mps 711 mmHg 43%
    19:00 +29°C° 0 mm 3 mps 711 mmHg 48%
    20:00 +28°C° 0 mm 2 mps 711 mmHg 53%
    21:00 +26°C° 0 mm 2 mps 711 mmHg 58%
    22:00 +26°C° 0 mm 1 mps 711 mmHg 60%
    23:00 +25°C° 0 mm 1 mps 711 mmHg 62%
    Show more